Preview of NWS' New Version of Forecast
This preview is not operational and should not be used for support decisions.

Regional Weather Roundup (RWR)

Issued by National Weather Service (NWS)

                            
000
ASUS45 KABQ 251610
RWRNM 
NEW MEXICO REGIONAL WEATHER ROUNDUP
NATIONAL WEATHER SERVICE ALBUQUERQUE NM
1000 AM MDT SUN AUG 25 2019

NOTE: "FAIR" MEANS FEW OR NO CLOUDS BELOW 12,000 FEET AGL WITH NO
       SIGNIFICANT WEATHER OR OBSTRUCTIONS TO VISION.

      THIS PRODUCT IS RELEASED AS TWO VERSIONS.  ONE VERSION NEAR
      THE TOP OF THE HOUR CONTAINING PRELIMINARY DATA FROM ALBUQUERQUE
      AND OTHER STATIONS.  A FINAL VERSION WITH ADDITIONAL DATA IS 
      ISSUED ABOUT 10 MINUTES AFTER THE HOUR.
 
NMZ501-503-504-510>518-251700-
NORTHWEST PLATEAU/NORTHCENTRAL MOUNTAINS
  
CITY           SKY/WX    TMP DP  RH WIND       PRES   REMARKS
FARMINGTON     FAIR      74  35  24 E7        30.18S                  
LOS ALAMOS       N/A     71  30  22 SE3       30.29R                  
SANTA FE       FAIR      80  31  16 VRB6      30.22S                  
TAOS           FAIR      73  35  25 VRB3      30.29F                  
ANGEL FIRE     FAIR      69  38  32 CALM      30.36F                  

$$
NMZ402-403-502-505>509-251700-
WESTCENTRAL MOUNTAINS/SOUTHWEST MOUNTAINS
  
CITY           SKY/WX    TMP DP  RH WIND       PRES   REMARKS
GALLUP         FAIR      77  41  27 SW12      30.29F                  
GRANTS         FAIR      74  35  23 E3        30.31S                  
SILVER CITY    FAIR      81  55  40 W13       30.20S                  

$$
NMZ407-409-411-412-251700-
SOUTHERN DESERTS
  
CITY           SKY/WX    TMP DP  RH WIND       PRES   REMARKS
DEMING         FAIR      82  61  48 W7        30.13S                  
LAS CRUCES     FAIR      83  58  42 CALM      30.13R                  
HOLLOMAN AFB   FAIR      84  61  45 CALM      30.10S                  
ALAMOGORDO     FAIR      82  57  42 CALM      30.10S                  
T OR C         FAIR      85  49  28 E8        30.14S                  

$$
NMZ519>523-251700-
CENTRAL VALLEYS/CENTRAL HIGHLANDS
  
CITY           SKY/WX    TMP DP  RH WIND       PRES   REMARKS
ALBUQUERQUE    FAIR      81  33  17 CALM      30.18R                  
DOUBLE EAGLE   SUNNY     79  36  21 VRB5      30.21S                  
MORIARTY ARPT  FAIR      86  32  14 NW14      30.21S                  
CLINES CORNERS FAIR      80  31  16 NW16G23   30.27R                  
BELEN          FAIR      81  32  16 CALM      30.17S                  
SOCORRO        FAIR      87  42  20 N10G17    30.14S                  

$$
NMZ524>526-539-540-251700-
SOUTHCENTRAL MOUNTAINS
  
CITY           SKY/WX    TMP DP  RH WIND       PRES   REMARKS
RUIDOSO        FAIR      77  39  25 NW12G21   30.28S                  

$$
NMZ527>531-251700-
NORTHEAST HIGHLANDS/NORTHEAST PLAINS
  
CITY           SKY/WX    TMP DP  RH WIND       PRES   REMARKS
LAS VEGAS      FAIR      83  34  17 N8        30.23                   
RATON          FAIR      80  43  26 NE5       30.14S                  
CLAYTON        FAIR      89  46  22 NW9       30.02S                  

$$
NMZ532>537-251700-
EASTCENTRAL PLAINS
  
CITY           SKY/WX    TMP DP  RH WIND       PRES   REMARKS
SANTA ROSA     FAIR      91  42  17 CALM      30.03S                  
TUCUMCARI      FAIR      83  53  35 VRB6      29.96S                  
CANNON AFB     FAIR      84  53  33 NW8       30.00R                  
CLOVIS AIRPORT FAIR      86  57  37 NW13      30.00R                  

$$
NMZ028-029-538-251700-
SOUTHEAST PLAINS
  
CITY           SKY/WX    TMP DP  RH WIND       PRES   REMARKS
ROSWELL        FAIR      90  53  28 E3        29.96S                  
ARTESIA        FAIR      95  50  21 NW8G17    29.97S                  
CARLSBAD       FAIR      90  60  36 NE8       29.94R                  
HOBBS          SUNNY     93  52  24 W16G22    29.97S                  


$$